Presure
118 103 115 110 106 122 102 114 108 107 107 111 112 117 122 110 117 94 110 113 112 112 117 123 110 112 128 139 116 137 121 122 122 133 146 120 140 124 126 176 157 204 212 215 222 214 226 225 219
108 110 106 98 104 101 107 108 102 120 114 113 120 122 118 106 112 111 114 108 115 112 113 117 109 122 126 138 130 150 124 121 125 132 135 124 133 136 141 129 129 221 151 224 192 231 229 218 196
108 104 113 110 100 121 108 108 112 112 110 105 109 119 124 108 109 108 106 94 101 105 91 104 126 114 133 134 130 128 115 135 118 116 119 118 136 147 133 143 146 177 197 205 184 194 215 203 127
101 111 97 109 113 90 103 110 89 109 102 111 115 120 122 122 115 104 109 95 107 109 103 120 106 127 129 119 137 117 121 133 119 132 132 107 132 109 125 134 149 144 182 190 153 193 198 209 205
116 106 102 112 110 92 108 108 99 93 117 120 120 117 124 123 124 118 107 104 111 105 102 106 104 125 104 111 137 129 141 131 126 119 126 131 152 116 122 124 127 181 133 183 171 191 175 173 207
123 125 120 114 110 96 103 107 104 112 97 96 102 107 105 120 128 106 99 103 110 102 105 103 125 102 143 109 133 134 126 121 118 120 128 136 126 110 124 116 124 180 169 177 198 169 182 151 199
119 112 121 128 131 126 101 104 103 92 104 99 104 104 108 97 106 110 109 103 85 103 104 116 135 135 123 120 130 138 133 124 115 126 108 132 138 127 115 124 126 170 156 159 169 173 160 155 174
116 103 107 120 118 132 103 132 136 103 116 112 120 90 95 123 103 102 103 104 103 104 101 129 118 124 125 142 110 136 131 110 113 124 119 138 127 141 132 118 151 142 169 160 152 178 143 156 165
104 100 115 123 121 123 106 109 120 117 114 127 126 98 113 106 102 125 110 97 118 103 111 104 104 108 104 100 111 112 108 126 132 123 134 134 140 130 133 93 134 147 161 167 158 152 175 151 160
104 108 116 113 114 110 113 116 121 113 103 112 113 115 112 109 101 98 103 108 123 121 104 113 110 119 110 132 120 116 113 128 115 126 131 132 131 132 124 111 134 127 141 174 152 159 148 153 184
114 112 112 108 113 115 110 109 119 110 121 119 116 109 104 104 115 116 113 110 110 115 116 115 119 107 117 127 100 128 105 115 129 127 154 81 75 146 128 148 131 143 120 152 146 172 160 149 169
112 116 116 113 109 111 112 109 116 117 122 111 108 103 117 106 109 109 109 109 116 114 116 122 98 113 112 112 129 123 113 122 127 134 139 149 96 130 129 127 131 140 152 152 161 157 160 154 153
115 108 102 115 105 104 110 109 115 118 100 118 116 115 119 120 117 114 120 107 117 121 126 89 120 123 120 118 139 120 128 132 128 132 125 74 113 87 132 117 151 143 158 146 159 169 153 161 147
123 126 122 131 123 122 115 114 117 125 124 114 119 113 120 122 103 121 114 118 116 113 99 118 120 135 115 117 136 135 125 134 133 130 103 87 127 126 89 119 156 126 169 145 150 152 160 161 154
139 126 141 124 131 136 136 109 126 112 127 134 134 130 118 121 129 126 131 129 108 125 118 123 119 114 127 128 129 133 140 90 111 133 137 102 124 132 141 126 149 136 146 143 139 159 157 156 157
130 137 124 130 136 114 135 135 134 126 90 132 130 127 113 131 128 138 129 121 136 127 128 79 131 126 138 122 137 142 140 133 139 108 90 131 116 110 116 124 132 150 151 142 152 151 151 155 155
137 153 125 133 130 134 134 118 120 130 111 112 115 114 117 131 139 134 139 140 135 126 124 81 130 138 136 130 136 114 98 132 123 124 126 99 131 134 100 144 141 158 148 139 154 151 160 155 166
171 129 140 140 132 133 129 118 126 130 117 117 110 100 111 119 119 122 121 130 130 144 117 124 128 129 133 131 112 127 133 114 106 113 121 73 126 112 134 150 138 149 144 162 156 154 158 134 160
167 164 167 121 135 138 155 127 130 117 117 113 113 121 107 127 125 130 130 130 131 136 126 118 128 130 126 110 117 119 122 138 104 121 131 139 134 130 147 148 137 129 145 166 158 161 157 140 160
160 161 169 166 131 143 163 129 139 140 141 124 125 131 135 130 133 73 118 131 139 138 122 104 111 119 119 132 138 128 127 137 137 126 142 139 131 145 154 147 136 164 158 164 158 157 148 158 161
198 179 162 159 155 163 162 159 144 140 145 146 130 129 134 143 129 132 135 127 130 139 134 106 132 99 129 129 120 133 127 99 115 95 149 135 154 164 143 139 157 164 156 156 159 153 150 160 159
197 203 189 175 106 169 177 147 162 161 145 143 134 125 151 138 140 133 147 142 123 140 131 137 137 122 140 111 116 114 99 114 136 119 134 153 161 144 151 160 154 151 157 160 161 152 150 162 165
193 188 195 200 195 187 190 184 193 165 141 153 167 182 163 164 166 150 147 136 142 145 133 153 126 92 141 150 84 87 147 142 140 135 119 154 136 153 158 148 154 159 159 148 158 158 163 163 166
215 65 98 100 195 190 179 150 88 185 178 119 138 173 174 161 168 167 168 171 160 79 145 112 150 158 159 155 151 152 149 148 152 134 159 142 153 159 155 143 159 160 156 160 147 151 162 161 162
214 213 199 190 142 141 194 197 199 141 123 182 169 182 175 165 162 168 179 178 168 164 167 147 171 175 161 121 149 116 148 153 161 143 151 155 156 146 151 161 159 152 157 155 144 153 161 141 168
201 200 203 213 101 117 183 179 195 183 186 196 96 185 188 183 175 173 169 177 183 166 159 158 159 155 165 163 164 170 162 159 165 163 157 164 140 151 161 157 158 153 151 153 161 161 164 169 173
207 206 211 212 221 201 215 199 193 116 135 183 183 143 133 105 184 185 175 179 160 172 169 168 158 172 164 105 117 164 162 159 163 164 159 159 160 162 160 152 151 161 158 156 151 166 167 166 133
213 211 133 207 208 209 215 225 177 211 187 180 134 82 134 134 141 168 189 185 184 189 159 172 119 117 166 168 165 165 162 168 164 159 164 162 163 163 157 157 161 140 157 155 167 170 140 169 123
206 204 208 210 166 217 221 226 218 100 204 83 85 184 81 90 188 191 183 190 159 190 89 182 94 153 176 171 171 175 173 159 164 163 159 167 162 158 162 161 158 167 155 167 173 169 173 177 174
84 104 209 205 210 214 221 230 214 215 215 186 201 228 235 195 194 150 190 196 193 185 190 103 185 184 178 180 180 179 177 175 126 170 162 163 163 164 169 162 166 164 173 170 174 179 180 184 182
Wind_Speed
31 24 27 24 22 28 19 23 23 22 24 25 30 26 28 24 30 16 26 25 28 31 35 36 37 37 47 45 29 44 42 42 46 49 49 47 50 49 50 45 40 38 37 35 32 30 25 21 17
28 26 26 25 27 16 24 21 24 28 26 28 29 28 27 26 31 31 26 25 28 29 33 37 38 36 47 44 42 43 45 40 48 49 43 50 51 49 51 49 47 38 46 36 34 31 24 19 18
32 29 30 27 24 26 25 25 25 24 27 27 33 33 30 22 31 33 24 24 27 27 25 34 38 35 42 46 49 49 38 48 43 44 46 44 54 53 52 51 51 44 38 36 35 32 33 28 17
36 36 31 29 28 29 28 29 31 23 25 28 36 38 33 32 32 31 34 22 30 30 29 36 37 40 41 51 45 44 49 50 50 52 52 38 55 43 51 54 51 53 47 45 41 39 39 36 33
44 39 37 35 27 30 30 29 23 31 27 30 34 35 35 34 30 33 35 30 30 32 28 31 35 39 41 44 46 45 43 50 54 51 50 55 53 47 54 55 44 51 53 49 47 44 44 43 37
47 48 49 41 33 29 32 33 25 32 27 28 36 30 31 35 30 31 32 31 31 32 33 31 40 36 38 45 49 48 50 52 52 53 52 56 55 33 56 45 45 50 53 52 45 54 48 40 43
48 49 51 52 50 43 34 36 26 38 30 27 30 48 26 35 30 33 35 34 26 36 36 41 41 39 38 46 49 49 47 52 49 56 42 59 59 59 49 56 63 52 57 54 56 53 55 46 43
50 49 49 54 45 46 38 48 47 36 41 30 31 31 27 30 36 34 34 38 34 35 40 41 40 41 39 39 56 51 51 46 46 58 55 56 60 60 62 58 60 58 52 56 60 51 52 50 57
48 54 58 56 51 44 41 50 44 41 40 44 35 45 47 26 33 39 37 37 42 33 39 39 41 43 35 47 56 54 42 55 53 49 56 59 58 58 59 33 64 63 58 53 57 60 53 54 55
51 59 63 52 50 41 46 55 53 38 40 41 36 38 45 41 30 42 40 39 45 45 37 41 40 41 43 41 45 47 58 59 48 59 59 58 61 59 59 52 63 53 65 53 60 56 59 58 52
59 66 60 53 54 50 51 54 61 41 49 51 44 35 40 41 40 41 46 43 44 46 42 43 42 43 44 43 47 48 44 53 58 60 51 12 9 62 59 63 60 63 54 60 62 54 57 62 61
60 69 66 61 53 55 57 53 64 57 54 49 40 40 44 40 46 41 46 45 51 44 45 49 37 45 43 43 43 50 58 59 58 60 59 57 34 63 61 59 58 62 63 63 60 62 61 63 66
67 61 58 68 55 56 60 56 66 68 44 52 51 51 51 44 44 49 50 46 56 59 52 36 50 48 52 45 50 48 54 56 58 58 57 9 43 25 64 51 69 67 65 65 64 62 64 63 64
77 78 73 81 76 73 67 65 65 77 68 50 56 49 57 56 37 50 52 52 51 59 32 47 47 52 50 47 55 50 52 57 58 59 32 23 59 63 33 59 67 63 62 70 72 70 66 66 67
88 80 84 80 83 80 77 64 76 63 70 71 65 63 54 63 57 55 55 54 46 57 61 59 48 47 55 57 54 52 53 23 52 60 62 40 59 66 70 62 72 67 78 73 69 73 74 72 69
85 85 79 94 86 73 75 75 80 70 38 69 66 59 49 65 64 61 58 53 54 54 64 18 63 54 56 55 60 59 56 54 58 45 20 61 49 52 59 65 71 72 73 75 75 75 74 73 72
92 91 91 99 84 85 78 76 78 74 58 60 63 59 60 66 67 67 62 63 58 51 59 30 65 65 58 60 60 43 42 55 55 60 62 38 66 61 38 72 74 67 74 77 75 75 73 74 76
104 97 96 92 92 85 77 73 82 74 66 68 62 46 58 68 66 64 61 63 60 60 55 64 66 62 60 58 49 55 60 53 46 52 59 21 62 55 72 70 75 72 76 68 74 76 75 62 76
109 103 101 85 100 95 95 78 82 66 65 69 71 74 61 75 72 72 68 69 65 60 55 60 67 65 51 49 54 51 54 70 36 60 69 73 64 69 73 73 76 69 75 66 73 75 77 66 77
107 100 99 102 101 105 106 78 87 84 84 78 82 83 80 78 79 27 61 72 79 65 58 51 51 52 50 63 69 64 67 67 63 67 77 71 71 77 73 73 76 69 70 67 73 76 79 80 80
111 109 104 106 116 111 107 105 91 88 89 91 85 85 85 85 78 75 76 71 80 82 63 57 71 47 67 65 56 69 63 42 58 32 74 75 76 73 77 77 74 72 73 71 72 78 81 84 85
113 106 113 114 24 111 113 91 105 100 94 89 89 83 94 84 82 78 79 76 68 91 75 71 72 61 78 46 57 59 42 59 64 62 74 79 77 78 75 77 78 78 77 77 78 77 81 86 88
102 122 116 115 113 110 116 122 95 106 88 96 99 97 99 100 95 87 78 77 80 88 79 87 64 38 79 81 26 30 81 81 82 79 63 79 77 82 83 79 83 81 81 78 83 86 89 89 91
117 19 33 38 118 111 93 79 47 101 100 47 72 101 99 101 103 98 92 88 85 31 94 54 83 85 86 84 83 83 84 82 84 64 82 84 84 83 84 81 84 83 87 87 80 85 93 90 94
111 119 121 126 82 67 109 120 106 69 43 104 108 109 106 104 105 105 101 93 87 87 91 89 93 88 87 61 78 61 85 87 83 85 84 84 84 85 87 88 87 83 88 89 81 90 96 80 101
120 123 127 130 48 53 116 116 114 103 105 105 30 107 108 106 106 107 104 99 93 92 93 95 99 93 94 90 87 85 87 88 86 86 85 84 81 85 86 87 90 88 86 91 95 98 100 102 102
118 127 120 124 125 110 131 124 119 49 66 101 103 64 55 24 107 107 103 103 86 96 97 99 91 99 96 47 58 90 89 92 92 90 86 87 87 89 87 83 88 95 93 95 88 101 99 102 68
127 121 70 128 126 127 122 119 89 111 106 108 70 21 69 63 67 91 109 107 102 101 83 102 60 53 101 99 97 96 93 95 95 93 93 92 92 91 91 91 95 74 96 91 102 104 77 103 59
119 121 128 129 98 128 124 115 106 30 98 34 28 115 28 34 108 109 102 110 81 105 38 102 39 86 102 102 102 102 99 95 98 97 94 98 95 92 97 96 93 102 95 104 106 105 106 106 98
31 44 132 133 129 127 127 120 105 102 97 107 109 113 115 124 120 78 112 112 111 105 108 48 107 106 102 106 106 106 104 104 60 100 98 99 97 99 101 98 100 99 106 105 108 109 109 107 104
Wind_Direction
278 263 278 275 278 287 292 298 302 302 308 306 309 312 312 318 315 311 327 340 339 340 335 331 336 337 327 328 327 336 345 342 343 339 343 345 346 344 346 359 348 4 355 347 348 341 338 330 329
267 269 270 273 282 281 286 292 290 299 305 306 301 303 307 314 312 311 329 338 334 339 335 332 333 330 325 327 329 334 341 335 339 337 343 342 342 343 348 349 344 3 356 352 358 351 355 351 330
268 264 273 270 269 283 284 286 292 295 300 301 299 308 301 310 308 312 324 318 329 335 324 333 325 327 327 323 326 332 337 334 339 335 338 341 340 346 347 352 353 1 7 4 8 354 2 358 329
268 271 266 268 275 275 277 281 285 291 290 301 298 299 304 307 307 309 314 314 325 326 326 326 326 325 324 322 324 335 334 331 336 333 335 339 338 343 343 346 352 349 1 5 350 10 12 0 358
267 269 266 271 270 266 276 277 273 282 293 292 293 295 301 300 303 303 308 316 321 318 320 322 321 323 324 324 322 329 333 328 328 332 335 335 344 337 342 346 349 357 352 1 3 7 14 13 357
263 264 268 271 266 261 269 272 273 284 278 284 291 293 292 298 301 298 299 307 312 310 314 317 319 321 325 323 320 323 323 326 329 331 335 334 336 326 341 341 350 359 358 2 6 3 4 1 0
268 268 268 268 268 269 266 267 260 273 273 274 292 289 284 293 294 295 298 300 308 310 310 312 315 319 321 318 317 320 322 321 330 326 338 332 335 336 338 346 345 356 354 359 2 2 1 358 356
266 266 267 268 270 268 269 271 274 264 274 272 278 280 286 287 290 292 293 297 299 305 308 306 312 315 316 321 321 319 317 328 327 324 329 329 331 337 337 345 346 349 357 355 351 1 354 354 356
260 264 269 268 272 274 270 271 270 268 270 276 271 274 286 274 280 287 289 291 296 298 302 309 312 312 316 322 314 316 331 318 321 322 325 329 332 333 337 350 342 344 351 353 351 350 356 351 351
258 264 266 268 269 269 271 271 272 264 265 268 266 271 278 281 273 281 283 288 296 297 301 300 307 306 311 304 307 311 318 314 320 320 323 327 328 330 335 344 336 340 341 352 348 349 346 350 352
260 262 265 263 267 269 268 268 273 261 269 272 269 262 271 279 282 284 287 287 288 294 296 296 299 302 301 303 313 305 321 316 315 319 326 339 25 329 331 332 334 338 346 343 344 350 348 344 351
257 260 261 263 263 265 265 265 271 270 267 265 267 265 272 274 283 281 283 287 289 288 291 296 301 298 301 303 302 304 308 310 313 316 319 324 331 326 328 332 330 335 340 341 344 344 347 345 345
257 256 262 262 261 260 262 261 267 268 268 267 270 274 276 273 275 280 280 285 289 290 288 298 292 295 296 300 301 302 304 307 310 313 318 333 329 331 325 327 332 333 337 337 340 344 342 343 341
254 256 256 257 258 258 260 263 265 266 271 266 271 269 276 278 262 275 280 283 283 289 297 291 295 294 295 300 302 305 305 305 309 312 310 327 319 320 330 326 332 330 339 334 336 337 339 341 342
254 254 254 257 257 255 254 262 260 263 267 269 267 271 273 276 277 278 275 276 279 282 289 291 291 293 294 297 298 301 304 299 310 309 313 322 316 319 324 324 327 329 329 331 332 336 337 338 339
255 255 256 257 255 256 255 254 256 260 266 264 267 270 270 271 278 272 275 276 276 278 283 280 290 292 292 296 295 297 300 302 307 306 301 314 314 319 319 323 324 325 327 328 329 330 332 333 336
255 251 250 253 254 255 256 257 259 260 267 269 272 271 271 270 269 274 274 273 274 276 279 293 288 289 290 292 296 292 296 303 304 305 308 310 314 316 328 318 321 323 325 325 325 327 329 330 331
246 248 251 253 257 255 257 256 260 261 263 264 268 262 267 268 270 272 273 274 275 273 279 282 285 286 288 293 292 298 301 294 296 301 304 302 311 310 315 316 317 320 322 323 322 323 324 326 329
246 246 246 257 257 257 254 255 258 261 262 264 265 266 268 268 270 271 273 275 274 274 273 279 282 285 289 288 293 295 295 301 297 301 304 306 307 310 312 313 315 317 318 321 320 321 322 324 325
246 250 248 247 256 255 253 255 257 257 255 260 261 262 262 265 266 273 274 275 275 274 274 274 279 283 286 290 289 295 297 296 297 302 301 302 306 307 308 310 312 314 315 319 318 319 319 319 321
243 246 247 247 248 248 252 255 256 256 254 255 258 260 260 260 264 267 268 272 277 276 271 269 276 277 285 285 288 292 289 284 291 295 297 300 301 304 305 308 308 311 311 313 316 316 317 318 319
248 248 245 246 264 249 251 255 252 255 255 257 258 261 260 261 261 264 264 268 266 274 277 272 276 277 279 285 283 284 282 289 294 294 295 298 301 301 304 305 305 308 311 313 316 314 315 315 316
242 247 247 245 246 246 246 251 248 252 260 257 258 256 260 262 262 260 260 264 265 269 271 272 273 262 277 279 263 274 286 288 291 293 293 297 299 300 302 303 305 309 312 312 314 313 313 313 314
235 270 249 252 248 247 246 241 255 249 253 258 258 257 257 260 262 262 261 258 260 242 269 260 273 273 275 276 278 280 282 284 286 289 290 295 296 299 301 302 305 309 310 311 311 311 311 311 312
241 241 241 246 251 255 252 253 249 251 242 249 254 254 255 257 260 263 264 263 262 264 264 271 270 270 271 274 276 280 281 282 283 287 288 290 293 297 298 301 303 305 306 308 309 309 309 313 309
241 240 240 240 239 241 244 248 252 247 247 246 253 253 256 257 258 260 262 265 266 264 267 268 269 270 272 273 274 275 277 279 281 281 285 286 291 293 295 298 300 302 304 304 304 304 305 305 306
243 244 245 244 242 244 240 245 250 238 248 253 253 249 250 272 259 260 262 262 263 265 266 267 270 272 273 268 275 275 277 279 281 283 286 288 289 291 294 294 297 298 300 301 303 302 302 303 304
245 247 236 247 247 248 246 243 243 246 250 254 255 234 258 256 255 257 260 262 263 261 260 265 267 273 272 274 276 277 279 279 281 285 285 286 288 290 292 293 294 298 297 299 298 298 303 302 303
249 250 252 252 254 252 252 250 249 262 248 223 235 253 240 258 257 258 259 262 261 263 264 263 277 269 269 271 273 274 274 277 278 280 283 282 285 288 288 290 291 291 295 296 296 297 298 300 302
222 237 249 252 254 256 255 252 249 250 247 249 249 251 253 252 257 258 260 261 261 264 266 265 264 265 266 267 268 269 270 272 279 275 279 281 282 283 283 286 288 290 290 292 293 295 296 298 300